User: anonymous   Login
Location: El Centro
(32.7920°N, 115.5620°W)
Time: 19:34:07
(UTC-07:00)
Language:

Hamsat - Orbit

View from above orbital plane
View from above orbital plane
View from above satellite
View from above satellite

Ground track
Ground track

The orbit data is extracted from the following two-line orbital elements,

1 28650U 05017B   17085.88146396 +.00000500 +00000-0 +59098-4 0  9990
2 28650 097.6430 063.0521 0024707 045.7807 314.5434 14.88597206643850
Epoch (UTC): 26 March 2017 21:09:18
Eccentricity: 0.0024707
inclination: 97.6430°
perigee height: 585 km
apogee height: 619 km
right ascension of ascending node: 63.0521°
argument of perigee: 45.7807°
revolutions per day: 14.88597206
mean anomaly at epoch: 314.5434°
orbit number at epoch: 64385

The dashed part of the orbit path shows where the satellite is in the earth's shadow,  

DLR